Terug naar catalogus

CZ-6A DEB

ActiefPO
NORAD 61843·DEBRIS·🇨🇳 China

Gelanceerd Aug 6, 2024 vanaf Taiyuan Satellite Launch Center

Loading…

Volgende Passages (komende 24 uur)

TLE

VersSource: Space-Track

Epoch: Sep 14, 2026, 03:11 UTC

1 61843U 24140ADK 26257.13268067  .00003659  00000-0  98651-3 0  9993
2 61843  88.3462 200.3852 0099154  71.9760 289.2218 14.44801887108481

Volg CZ-6A DEB in realtime met AllMySat

Download on the App Store